QPF
0.05 0.06 0.05 0.05 0.05 0.03 0.04 0.05 0.05 0.05 0.03 0.02 0.02 0.01 0.02 0.03 0.04 0.03 0.05 0.04 0.02 0.02 0.02 0.01 0.01 0.00 0.00 0.00 0.01 0.01 0.00 0.00 0.00 0.01 0.01 0.01 0.01 0.01
0.06 0.06 0.06 0.05 0.05 0.03 0.03 0.03 0.03 0.05 0.04 0.03 0.03 0.01 0.02 0.02 0.02 0.03 0.04 0.04 0.04 0.03 0.02 0.01 0.01 0.01 0.01 0.01 0.01 0.01 0.00 0.00 0.00 0.00 0.00 0.00 0.00 0.00
0.04 0.05 0.05 0.05 0.05 0.04 0.04 0.03 0.03 0.05 0.04 0.02 0.02 0.02 0.02 0.03 0.03 0.03 0.03 0.03 0.03 0.02 0.01 0.01 0.01 0.01 0.02 0.01 0.01 0.01 0.01 0.01 0.01 0.01 0.00 0.00 0.00 0.00
0.04 0.04 0.03 0.03 0.04 0.04 0.03 0.03 0.03 0.03 0.03 0.04 0.04 0.03 0.03 0.04 0.03 0.04 0.03 0.02 0.02 0.01 0.01 0.01 0.01 0.01 0.01 0.01 0.01 0.01 0.01 0.01 0.01 0.01 0.01 0.01 0.01 0.01
0.05 0.04 0.03 0.03 0.02 0.03 0.03 0.03 0.02 0.02 0.03 0.03 0.03 0.03 0.03 0.03 0.03 0.03 0.02 0.02 0.02 0.02 0.02 0.01 0.01 0.01 0.01 0.01 0.01 0.01 0.01 0.01 0.01 0.01 0.01 0.02 0.02 0.02
0.06 0.05 0.04 0.04 0.03 0.03 0.03 0.04 0.04 0.04 0.04 0.04 0.03 0.04 0.04 0.03 0.04 0.05 0.04 0.03 0.03 0.02 0.02 0.02 0.02 0.02 0.02 0.02 0.02 0.02 0.02 0.02 0.02 0.02 0.02 0.02 0.02 0.02
0.06 0.05 0.05 0.05 0.05 0.05 0.06 0.06 0.06 0.07 0.06 0.05 0.05 0.05 0.05 0.05 0.04 0.04 0.04 0.04 0.04 0.02 0.03 0.02 0.02 0.02 0.01 0.02 0.02 0.01 0.01 0.01 0.01 0.01 0.01 0.01 0.01 0.01
0.07 0.07 0.06 0.05 0.05 0.05 0.05 0.06 0.07 0.07 0.08 0.08 0.07 0.07 0.08 0.07 0.07 0.06 0.05 0.04 0.05 0.04 0.04 0.03 0.02 0.02 0.01 0.01 0.01 0.01 0.01 0.01 0.01 0.01 0.00 0.00 0.00 0.01
0.10 0.10 0.09 0.07 0.06 0.05 0.06 0.05 0.05 0.06 0.06 0.07 0.08 0.09 0.09 0.10 0.09 0.08 0.08 0.08 0.08 0.06 0.06 0.04 0.03 0.03 0.02 0.01 0.01 0.01 0.01 0.00 0.00 0.00 0.00 0.00 0.01 0.01
0.08 0.07 0.07 0.06 0.05 0.05 0.05 0.05 0.05 0.06 0.06 0.06 0.08 0.10 0.13 0.14 0.12 0.09 0.10 0.09 0.06 0.05 0.05 0.05 0.04 0.04 0.03 0.02 0.02 0.01 0.01 0.01 0.01 0.00 0.01 0.01 0.01 0.01
0.12 0.11 0.11 0.09 0.08 0.06 0.06 0.05 0.06 0.07 0.08 0.09 0.10 0.10 0.10 0.09 0.08 0.08 0.08 0.07 0.06 0.05 0.06 0.06 0.04 0.04 0.03 0.03 0.02 0.02 0.01 0.01 0.01 0.01 0.01 0.01 0.01 0.01
0.21 0.21 0.19 0.13 0.11 0.09 0.07 0.06 0.06 0.06 0.06 0.07 0.06 0.05 0.06 0.06 0.06 0.05 0.07 0.08 0.08 0.07 0.06 0.06 0.05 0.04 0.04 0.03 0.03 0.02 0.02 0.01 0.01 0.01 0.01 0.01 0.01 0.01
0.16 0.15 0.12 0.11 0.10 0.09 0.08 0.06 0.06 0.06 0.05 0.05 0.05 0.05 0.04 0.04 0.04 0.04 0.05 0.06 0.08 0.08 0.07 0.07 0.07 0.06 0.06 0.05 0.05 0.04 0.04 0.04 0.03 0.03 0.02 0.02 0.01 0.01
0.18 0.15 0.14 0.13 0.12 0.10 0.08 0.07 0.07 0.07 0.06 0.06 0.06 0.06 0.06 0.07 0.07 0.07 0.06 0.07 0.07 0.07 0.07 0.07 0.08 0.07 0.07 0.07 0.06 0.05 0.05 0.04 0.04 0.03 0.03 0.03 0.02 0.01
0.15 0.16 0.14 0.13 0.10 0.08 0.07 0.07 0.06 0.06 0.07 0.07 0.07 0.07 0.06 0.05 0.05 0.05 0.05 0.06 0.06 0.06 0.06 0.06 0.06 0.06 0.06 0.05 0.05 0.04 0.04 0.03 0.03 0.04 0.04 0.04 0.04 0.03
0.13 0.11 0.09 0.08 0.08 0.07 0.07 0.07 0.06 0.06 0.06 0.06 0.05 0.04 0.03 0.03 0.03 0.03 0.04 0.05 0.06 0.06 0.06 0.06 0.06 0.07 0.07 0.06 0.06 0.06 0.05 0.04 0.04 0.04 0.04 0.04 0.04 0.04
0.08 0.07 0.07 0.07 0.07 0.07 0.07 0.06 0.05 0.04 0.04 0.04 0.04 0.03 0.03 0.02 0.02 0.02 0.02 0.03 0.03 0.04 0.04 0.05 0.05 0.06 0.06 0.06 0.06 0.06 0.07 0.06 0.05 0.04 0.03 0.03 0.02 0.03
0.03 0.04 0.05 0.05 0.06 0.06 0.06 0.05 0.04 0.04 0.04 0.04 0.03 0.03 0.03 0.02 0.02 0.02 0.02 0.02 0.02 0.02 0.03 0.03 0.04 0.05 0.04 0.04 0.04 0.04 0.04 0.04 0.04 0.04 0.04 0.03 0.03 0.02
0.02 0.03 0.03 0.04 0.04 0.04 0.04 0.04 0.04 0.03 0.02 0.02 0.02 0.03 0.03 0.03 0.02 0.02 0.02 0.02 0.01 0.01 0.02 0.02 0.03 0.03 0.04 0.04 0.04 0.03 0.03 0.03 0.03 0.03 0.03 0.03 0.03 0.03
0.03 0.03 0.03 0.03 0.02 0.02 0.02 0.02 0.02 0.02 0.01 0.01 0.01 0.01 0.02 0.02 0.02 0.02 0.02 0.02 0.02 0.02 0.02 0.02 0.02 0.03 0.03 0.04 0.03 0.02 0.02 0.03 0.03 0.03 0.03 0.03 0.03 0.03
0.04 0.04 0.03 0.02 0.02 0.02 0.02 0.02 0.01 0.01 0.01 0.01 0.01 0.01 0.01 0.01 0.01 0.01 0.01 0.01 0.01 0.01 0.02 0.02 0.01 0.01 0.02 0.02 0.02 0.02 0.03 0.04 0.04 0.03 0.03 0.04 0.04 0.04
0.04 0.03 0.03 0.02 0.02 0.02 0.01 0.01 0.01 0.01 0.01 0.01 0.01 0.01 0.01 0.01 0.01 0.01 0.01 0.01 0.01 0.01 0.01 0.01 0.01 0.01 0.01 0.02 0.03 0.03 0.03 0.03 0.03 0.03 0.03 0.03 0.04 0.04
0.04 0.03 0.03 0.02 0.02 0.02 0.02 0.02 0.02 0.02 0.02 0.01 0.01 0.01 0.01 0.01 0.01 0.01 0.01 0.01 0.01 0.01 0.01 0.01 0.01 0.01 0.01 0.02 0.02 0.02 0.02 0.02 0.02 0.03 0.02 0.03 0.03 0.03
MSLP
1016.18 1016.68 1017.14 1017.50 1017.75 1017.83 1017.75 1017.49 1017.08 1016.55 1015.94 1015.31 1014.72 1014.21 1013.82 1013.57 1013.48 1013.54 1013.72 1014.01 1014.37 1014.77 1015.16 1015.53 1015.85 1016.12 1016.33 1016.50 1016.62 1016.73 1016.83 1016.94 1017.08 1017.26 1017.48 1017.74 1018.04 1018.35
1015.84 1016.33 1016.79 1017.18 1017.46 1017.58 1017.53 1017.30 1016.91 1016.38 1015.77 1015.12 1014.49 1013.93 1013.47 1013.15 1012.98 1012.94 1013.02 1013.21 1013.48 1013.79 1014.13 1014.47 1014.80 1015.10 1015.37 1015.61 1015.83 1016.02 1016.21 1016.40 1016.59 1016.81 1017.05 1017.32 1017.60 1017.90
1015.68 1016.11 1016.52 1016.88 1017.13 1017.24 1017.19 1016.97 1016.59 1016.08 1015.49 1014.85 1014.22 1013.65 1013.17 1012.79 1012.53 1012.39 1012.36 1012.42 1012.56 1012.76 1013.00 1013.27 1013.57 1013.88 1014.19 1014.50 1014.81 1015.11 1015.40 1015.68 1015.96 1016.23 1016.51 1016.79 1017.08 1017.36
1015.80 1016.12 1016.44 1016.72 1016.91 1016.97 1016.89 1016.66 1016.29 1015.80 1015.24 1014.64 1014.05 1013.49 1013.00 1012.59 1012.26 1012.02 1011.85 1011.76 1011.75 1011.79 1011.89 1012.06 1012.28 1012.55 1012.87 1013.23 1013.60 1013.99 1014.38 1014.75 1015.11 1015.45 1015.77 1016.08 1016.38 1016.66
1016.24 1016.44 1016.64 1016.81 1016.90 1016.88 1016.75 1016.49 1016.12 1015.66 1015.14 1014.60 1014.05 1013.53 1013.06 1012.62 1012.24 1011.91 1011.61 1011.37 1011.17 1011.03 1010.96 1010.97 1011.07 1011.25 1011.52 1011.87 1012.27 1012.70 1013.15 1013.59 1014.02 1014.42 1014.80 1015.14 1015.46 1015.77
1016.97 1017.05 1017.13 1017.17 1017.15 1017.05 1016.85 1016.56 1016.18 1015.74 1015.27 1014.78 1014.29 1013.82 1013.37 1012.94 1012.52 1012.10 1011.69 1011.29 1010.92 1010.58 1010.32 1010.14 1010.07 1010.12 1010.28 1010.55 1010.91 1011.34 1011.80 1012.27 1012.74 1013.18 1013.60 1013.98 1014.34 1014.67
1017.89 1017.87 1017.84 1017.77 1017.65 1017.46 1017.20 1016.87 1016.48 1016.06 1015.62 1015.18 1014.75 1014.33 1013.91 1013.49 1013.04 1012.57 1012.06 1011.53 1011.00 1010.49 1010.03 1009.65 1009.39 1009.26 1009.27 1009.41 1009.67 1010.02 1010.44 1010.89 1011.35 1011.81 1012.25 1012.66 1013.05 1013.43
1018.88 1018.78 1018.67 1018.52 1018.31 1018.05 1017.73 1017.37 1016.97 1016.55 1016.14 1015.73 1015.35 1014.97 1014.58 1014.18 1013.72 1013.22 1012.65 1012.02 1011.37 1010.70 1010.08 1009.52 1009.07 1008.75 1008.58 1008.55 1008.67 1008.90 1009.21 1009.59 1010.00 1010.43 1010.86 1011.29 1011.70 1012.10
1019.83 1019.68 1019.51 1019.30 1019.03 1018.72 1018.36 1017.96 1017.54 1017.12 1016.72 1016.33 1015.97 1015.62 1015.25 1014.86 1014.42 1013.90 1013.31 1012.64 1011.91 1011.15 1010.41 1009.71 1009.10 1008.61 1008.26 1008.06 1008.00 1008.07 1008.25 1008.51 1008.83 1009.18 1009.56 1009.96 1010.36 1010.76
1020.66 1020.49 1020.27 1020.02 1019.72 1019.37 1018.98 1018.55 1018.11 1017.68 1017.26 1016.87 1016.50 1016.15 1015.80 1015.42 1014.99 1014.49 1013.90 1013.24 1012.50 1011.71 1010.91 1010.14 1009.43 1008.81 1008.31 1007.94 1007.71 1007.61 1007.62 1007.73 1007.91 1008.16 1008.44 1008.76 1009.11 1009.47
1021.37 1021.16 1020.93 1020.65 1020.32 1019.94 1019.53 1019.08 1018.61 1018.15 1017.70 1017.28 1016.88 1016.51 1016.14 1015.76 1015.35 1014.88 1014.33 1013.71 1013.01 1012.26 1011.47 1010.69 1009.94 1009.25 1008.65 1008.15 1007.77 1007.50 1007.34 1007.28 1007.30 1007.39 1007.54 1007.73 1007.97 1008.23
1021.98 1021.74 1021.47 1021.17 1020.82 1020.43 1019.99 1019.52 1019.02 1018.51 1018.02 1017.54 1017.10 1016.68 1016.28 1015.89 1015.49 1015.04 1014.55 1014.00 1013.39 1012.71 1011.99 1011.25 1010.51 1009.81 1009.15 1008.56 1008.06 1007.64 1007.32 1007.08 1006.93 1006.84 1006.82 1006.85 1006.93 1007.05
1022.54 1022.26 1021.96 1021.63 1021.25 1020.84 1020.38 1019.88 1019.34 1018.79 1018.24 1017.71 1017.20 1016.72 1016.28 1015.86 1015.45 1015.04 1014.60 1014.13 1013.60 1013.02 1012.40 1011.73 1011.05 1010.36 1009.68 1009.04 1008.45 1007.92 1007.45 1007.04 1006.71 1006.43 1006.22 1006.06 1005.96 1005.90
1023.09 1022.75 1022.40 1022.03 1021.63 1021.19 1020.71 1020.18 1019.62 1019.03 1018.43 1017.83 1017.26 1016.72 1016.23 1015.77 1015.35 1014.95 1014.55 1014.13 1013.69 1013.20 1012.66 1012.08 1011.45 1010.80 1010.13 1009.46 1008.80 1008.17 1007.58 1007.03 1006.53 1006.08 1005.68 1005.33 1005.03 1004.78
1023.61 1023.21 1022.80 1022.39 1021.96 1021.50 1021.00 1020.46 1019.88 1019.26 1018.63 1017.99 1017.36 1016.78 1016.23 1015.73 1015.28 1014.87 1014.48 1014.10 1013.70 1013.26 1012.79 1012.26 1011.69 1011.06 1010.40 1009.71 1009.01 1008.31 1007.62 1006.95 1006.31 1005.71 1005.14 1004.61 1004.13 1003.70
1024.07 1023.59 1023.13 1022.67 1022.22 1021.74 1021.24 1020.70 1020.12 1019.50 1018.86 1018.20 1017.56 1016.93 1016.35 1015.81 1015.33 1014.89 1014.48 1014.08 1013.69 1013.27 1012.81 1012.30 1011.74 1011.12 1010.45 1009.74 1009.01 1008.26 1007.50 1006.75 1006.01 1005.29 1004.59 1003.92 1003.29 1002.71
1024.38 1023.84 1023.33 1022.84 1022.36 1021.88 1021.39 1020.87 1020.32 1019.74 1019.12 1018.48 1017.84 1017.21 1016.61 1016.05 1015.52 1015.03 1014.58 1014.14 1013.70 1013.24 1012.75 1012.21 1011.62 1010.98 1010.29 1009.56 1008.80 1008.02 1007.22 1006.42 1005.62 1004.83 1004.05 1003.29 1002.56 1001.87
1024.48 1023.90 1023.35 1022.84 1022.36 1021.89 1021.43 1020.96 1020.46 1019.93 1019.37 1018.79 1018.19 1017.58 1016.98 1016.40 1015.83 1015.30 1014.77 1014.26 1013.74 1013.20 1012.63 1012.02 1011.38 1010.69 1009.97 1009.21 1008.43 1007.64 1006.83 1006.02 1005.20 1004.39 1003.57 1002.77 1001.98 1001.22
1024.36 1023.75 1023.19 1022.68 1022.21 1021.78 1021.37 1020.95 1020.53 1020.08 1019.60 1019.09 1018.54 1017.97 1017.39 1016.80 1016.20 1015.61 1015.01 1014.40 1013.78 1013.14 1012.48 1011.78 1011.07 1010.32 1009.56 1008.78 1007.99 1007.20 1006.40 1005.60 1004.80 1003.99 1003.17 1002.35 1001.54 1000.74
1024.06 1023.46 1022.91 1022.41 1021.98 1021.59 1021.23 1020.89 1020.54 1020.17 1019.77 1019.34 1018.85 1018.33 1017.77 1017.17 1016.54 1015.89 1015.21 1014.51 1013.79 1013.04 1012.28 1011.50 1010.72 1009.92 1009.12 1008.33 1007.55 1006.77 1005.99 1005.21 1004.43 1003.64 1002.82 1002.00 1001.17 1000.35
1023.68 1023.11 1022.59 1022.13 1021.74 1021.40 1021.10 1020.81 1020.54 1020.24 1019.91 1019.53 1019.10 1018.61 1018.05 1017.44 1016.78 1016.07 1015.31 1014.53 1013.71 1012.88 1012.03 1011.18 1010.34 1009.51 1008.70 1007.90 1007.12 1006.36 1005.60 1004.84 1004.07 1003.28 1002.46 1001.61 1000.75 999.90
1023.34 1022.82 1022.35 1021.95 1021.60 1021.30 1021.05 1020.82 1020.58 1020.33 1020.04 1019.69 1019.28 1018.79 1018.22 1017.58 1016.86 1016.09 1015.27 1014.40 1013.51 1012.61 1011.71 1010.82 1009.95 1009.10 1008.29 1007.50 1006.73 1005.97 1005.21 1004.44 1003.65 1002.82 1001.95 1001.05 1000.13 999.20
1023.16 1022.70 1022.30 1021.94 1021.64 1021.38 1021.16 1020.95 1020.73 1020.49 1020.19 1019.83 1019.40 1018.87 1018.26 1017.56 1016.78 1015.94 1015.05 1014.12 1013.18 1012.23 1011.30 1010.39 1009.52 1008.68 1007.87 1007.09 1006.32 1005.55 1004.76 1003.94 1003.07 1002.15 1001.19 1000.18 999.15 998.13
Thickness
5739 5737 5737 5739 5739 5739 5738 5734 5729 5725 5727 5733 5734 5736 5733 5731 5729 5726 5724 5721 5718 5715 5713 5711 5709 5707 5705 5703 5701 5699 5697 5696 5694 5693 5692 5691 5690 5689
5738 5737 5736 5738 5737 5737 5737 5735 5733 5729 5726 5733 5733 5735 5732 5731 5727 5725 5723 5720 5717 5715 5712 5710 5708 5706 5704 5702 5700 5698 5696 5695 5693 5692 5691 5690 5688 5687
5738 5737 5736 5736 5735 5736 5735 5734 5732 5730 5724 5729 5733 5732 5728 5726 5725 5723 5722 5720 5718 5714 5712 5709 5707 5705 5703 5701 5699 5697 5695 5694 5693 5691 5690 5688 5687 5685
5737 5736 5736 5735 5733 5732 5732 5731 5730 5728 5725 5722 5725 5726 5724 5723 5722 5720 5721 5721 5718 5715 5711 5708 5706 5703 5701 5699 5697 5695 5694 5693 5691 5690 5688 5687 5685 5683
5737 5735 5735 5733 5730 5730 5728 5728 5728 5727 5724 5722 5721 5722 5722 5721 5719 5718 5719 5716 5716 5714 5710 5707 5704 5701 5699 5697 5695 5693 5691 5690 5688 5687 5685 5683 5681 5679
5735 5734 5733 5731 5728 5726 5725 5723 5722 5721 5719 5718 5718 5718 5717 5716 5714 5713 5712 5713 5712 5713 5710 5706 5702 5699 5697 5694 5692 5690 5688 5686 5684 5682 5680 5678 5677 5675
5732 5731 5730 5727 5725 5722 5723 5720 5718 5716 5715 5714 5713 5712 5711 5708 5708 5709 5707 5707 5707 5707 5705 5704 5701 5698 5695 5691 5688 5686 5683 5681 5679 5677 5675 5673 5672 5670
5727 5727 5726 5723 5720 5716 5714 5712 5710 5709 5709 5707 5707 5704 5702 5702 5701 5701 5700 5698 5697 5701 5697 5698 5698 5695 5692 5689 5685 5681 5678 5675 5673 5671 5669 5667 5665 5664
5723 5722 5722 5720 5715 5713 5709 5705 5703 5701 5699 5700 5699 5697 5696 5696 5694 5693 5691 5690 5688 5691 5689 5688 5688 5686 5684 5682 5678 5675 5672 5668 5665 5663 5661 5659 5658 5656
5717 5715 5713 5711 5710 5707 5705 5702 5699 5697 5694 5692 5691 5690 5689 5687 5686 5685 5684 5683 5682 5683 5681 5677 5679 5677 5677 5674 5669 5666 5663 5660 5657 5655 5652 5650 5648 5647
5709 5707 5705 5703 5699 5697 5696 5693 5691 5688 5686 5683 5681 5679 5677 5676 5675 5676 5675 5674 5673 5674 5672 5668 5669 5668 5667 5665 5660 5656 5653 5650 5648 5645 5642 5640 5638 5636
5702 5699 5695 5693 5689 5687 5687 5684 5681 5679 5678 5676 5673 5671 5669 5667 5664 5663 5664 5663 5662 5662 5660 5657 5656 5655 5655 5656 5652 5647 5643 5640 5637 5634 5632 5630 5627 5626
5695 5692 5687 5682 5679 5677 5675 5673 5670 5669 5668 5666 5664 5662 5661 5658 5656 5654 5652 5651 5650 5649 5648 5644 5643 5642 5640 5640 5640 5637 5634 5631 5627 5623 5621 5618 5615 5613
5686 5682 5677 5672 5669 5666 5664 5661 5659 5659 5659 5657 5654 5652 5650 5648 5646 5644 5640 5638 5636 5634 5632 5630 5630 5628 5627 5626 5625 5624 5621 5619 5616 5613 5610 5607 5604 5602
5675 5670 5666 5662 5660 5657 5653 5651 5651 5651 5649 5646 5644 5642 5639 5637 5635 5632 5630 5627 5625 5623 5621 5617 5616 5615 5614 5613 5611 5609 5608 5606 5603 5601 5598 5596 5594 5592
5665 5660 5656 5653 5651 5647 5645 5643 5642 5640 5639 5637 5635 5632 5630 5627 5624 5622 5620 5618 5616 5613 5609 5606 5604 5601 5601 5600 5597 5595 5593 5591 5590 5587 5584 5584 5583 5581
5657 5654 5650 5647 5643 5640 5637 5635 5633 5630 5628 5626 5623 5621 5618 5616 5613 5610 5607 5606 5604 5601 5599 5596 5593 5590 5588 5586 5584 5582 5578 5576 5574 5572 5569 5571 5570 5569
5647 5644 5640 5636 5632 5629 5627 5624 5621 5618 5616 5614 5611 5609 5606 5603 5601 5598 5595 5593 5590 5587 5585 5582 5580 5579 5576 5574 5568 5567 5564 5562 5560 5557 5556 5556 5557 5556
5637 5633 5629 5625 5621 5618 5615 5612 5609 5605 5602 5601 5598 5595 5592 5590 5588 5585 5582 5579 5577 5574 5572 5569 5566 5563 5562 5561 5557 5550 5548 5546 5545 5544 5543 5541 5541 5542
5625 5621 5617 5613 5609 5606 5603 5599 5596 5593 5590 5587 5584 5581 5579 5577 5574 5572 5569 5564 5562 5560 5558 5555 5551 5547 5545 5543 5543 5540 5534 5532 5531 5530 5529 5528 5528 5527
5613 5608 5604 5600 5596 5593 5589 5586 5583 5581 5577 5574 5571 5568 5566 5563 5560 5557 5554 5548 5547 5547 5544 5541 5536 5530 5530 5530 5530 5529 5525 5519 5516 5514 5515 5515 5516 5515
5600 5595 5591 5587 5583 5579 5576 5573 5571 5568 5564 5562 5558 5555 5553 5550 5547 5544 5541 5538 5536 5533 5530 5528 5524 5522 5521 5518 5517 5515 5513 5509 5506 5503 5501 5499 5498 5500
5587 5583 5579 5574 5570 5566 5563 5560 5557 5554 5550 5547 5544 5541 5539 5537 5534 5531 5529 5526 5523 5520 5518 5517 5514 5511 5509 5506 5504 5502 5500 5498 5498 5496 5494 5489 5485 5484